GW3210 Weather Reports


time (UTC)temp
F
wind
direction
speed
knots
gust
knots
rain 1hr
in
rain 24hr
in
rain mn
in
humidity
%
barometer
mb
20260906192616 56 158 0.9 0.9 0.00 0.26 0.26 84 1018.5
20260906191616 56 158 1.7 2.6 0.00 0.26 0.26 84 1018.4
20260906190616 56 180 1.7 3.5 0.00 0.26 0.26 84 1018.5
20260906185616 55 158 0.9 0.9 0.00 0.26 0.26 84 1018.5
20260906184636 55 135 0.9 1.7 0.01 0.26 0.26 84 1018.5
20260906183616 55 135 1.7 2.6 0.03 0.26 0.26 84 1018.5
20260906182616 56 315 0.9 0.9 0.05 0.26 0.26 83 1018.5
20260906181616 56 0.0 0.0 0.07 0.26 0.26 83 1018.4
20260906180616 56 315 0.9 1.7 0.08 0.26 0.26 84 1018.3
20260906175616 56 158 0.9 0.9 0.10 0.26 0.26 83 1018.3
20260906174616 56 158 0.9 1.7 0.11 0.25 0.25 84 1018.2
20260906173636 55 0.0 0.0 0.10 0.23 0.23 84 1018.1
20260906172616 55 0.0 0.9 0.09 0.21 0.21 84 1018.2
20260906171636 55 0.0 0.9 0.07 0.19 0.19 83 1018.2
20260906170616 55 0.0 0.9 0.07 0.18 0.18 83 1018.2
20260906165616 55 0.0 0.9 0.05 0.16 0.16 82 1018.2
20260906164616 55 0.0 0.9 0.04 0.14 0.14 82 1018.2
20260906163616 54 158 0.9 1.7 0.05 0.13 0.13 82 1018.1
20260906162616 55 158 2.6 3.5 0.05 0.12 0.12 82 1018.2
20260906161616 54 0.0 0.9 0.06 0.12 0.12 82 1018.1
20260906160615 54 158 0.9 0.9 0.06 0.11 0.11 82 1017.9
20260906155615 54 158 1.7 1.7 0.06 0.11 0.11 82 1018.0
20260906154616 54 135 1.7 2.6 0.06 0.10 0.10 82 1018.0
20260906153616 54 135 1.7 2.6 0.04 0.08 0.08 82 1017.9
20260906152616 54 180 1.7 3.5 0.03 0.07 0.07 82 1018.0
20260906151635 54 158 1.7 1.7 0.02 0.06 0.06 81 1017.9
20260906150615 55 135 2.6 3.5 0.02 0.05 0.05 82 1017.9
20260906145615 55 158 1.7 2.6 0.02 0.05 0.05 82 1017.9
20260906144615 55 158 0.9 1.7 0.01 0.04 0.04 82 1017.7
20260906143635 55 0.0 0.9 0.02 0.04 0.04 81 1017.7
20260906142616 55 0.0 0.9 0.02 0.04 0.04 82 1017.6
20260906141615 56 0.0 0.9 0.03 0.04 0.04 82 1017.5
20260906140615 56 158 2.6 3.5 0.02 0.03 0.03 82 1017.4
20260906135615 56 135 2.6 3.5 0.02 0.03 0.03 81 1017.3
20260906134656 56 135 1.7 2.6 0.02 0.03 0.03 80 1017.2
20260906133615 56 158 1.7 3.5 0.02 0.02 0.02 79 1017.1
20260906132615 56 0.0 0.9 0.02 0.02 0.02 78 1017.2
20260906131636 56 0.0 0.0 0.01 0.01 0.01 77 1017.2
20260906130615 56 0.0 0.0 0.01 0.01 0.01 76 1017.2
20260906125615 56 248 0.9 1.7 0.01 0.01 0.01 75 1017.2
20260906124615 56 0.0 0.9 0.01 0.01 0.01 73 1017.2
20260906123635 56 270 1.7 1.7 0.00 0.00 0.00 71 1016.8
20260906122635 56 0.0 0.0 0.00 0.00 0.00 70 1017.1
20260906121615 56 293 0.9 1.7 0.00 0.00 0.00 70 1017.1
20260906120616 56 0.0 0.0 0.00 0.00 0.00 70 1017.1
20260906115615 56 293 0.9 1.7 0.00 0.00 0.00 70 1017.0
20260906114639 56 293 0.9 0.9 0.00 0.00 0.00 70 1017.1
20260906113615 56 293 0.9 1.7 0.00 0.00 0.00 70 1017.1
20260906112615 56 293 0.9 1.7 0.00 0.00 0.00 69 1017.4
20260906111615 57 225 0.9 1.7 0.00 0.00 0.00 69 1017.3
20260906110636 57 225 0.9 0.9 0.00 0.00 0.00 69 1017.3
20260906105616 57 225 0.9 0.9 0.00 0.00 0.00 68 1017.1
20260906104637 56 0.0 0.9 0.00 0.00 0.00 67 1017.1
20260906103617 56 0.0 0.0 0.00 0.00 0.00 67 1017.1
20260906102617 56 0.0 0.9 0.00 0.00 0.00 66 1017.1
20260906101617 56 0.0 0.0 0.00 0.00 0.00 66 1017.2
20260906100617 56 0.0 0.0 0.00 0.00 0.00 66 1017.1
20260906095617 56 0.0 0.0 0.00 0.00 0.00 65 1017.2
20260906094617 56 0.0 0.0 0.00 0.00 0.00 66 1017.3
20260906093617 56 0.0 0.0 0.00 0.00 0.00 66 1017.2
20260906092617 57 0.0 0.0 0.00 0.00 0.00 66 1017.2
20260906091617 57 0.0 0.0 0.00 0.00 0.00 66 1017.1
20260906090637 57 0.0 0.0 0.00 0.00 0.00 66 1017.2
20260906085617 57 0.0 0.0 0.00 0.00 0.00 66 1017.4
20260906084617 57 0.0 0.9 0.00 0.00 0.00 67 1017.3
20260906083639 57 0.0 0.9 0.00 0.00 0.00 66 1017.3
20260906082617 57 0.0 0.0 0.00 0.00 0.00 66 1017.0
20260906081617 57 0.0 0.0 0.00 0.00 0.00 66 1017.0
20260906080617 57 0.0 0.9 0.00 0.00 0.00 66 1017.0
20260906075657 58 0.0 0.0 0.00 0.00 0.00 66 1017.1
20260906065615 59 0.0 0.0 0.00 0.00 0.00 65 1017.0
20260906064615 59 158 1.7 2.6 0.00 0.00 0.00 65 1017.0
20260906063615 59 158 1.7 2.6 0.00 0.00 0.00 65 1017.1
20260906062616 59 180 1.7 3.5 0.00 0.00 0.00 64 1017.1
20260906061615 59 158 1.7 3.5 0.00 0.00 0.00 64 1017.1
20260906060655 59 180 1.7 2.6 0.00 0.00 0.00 63 1017.1
20260906055615 59 180 1.7 2.6 0.00 0.00 0.00 64 1017.0
20260906054615 59 270 1.7 2.6 0.00 0.00 0.00 64 1017.1
20260906053636 58 293 0.9 1.7 0.00 0.00 0.00 64 1017.0
20260906052615 58 113 0.9 0.9 0.00 0.00 0.00 63 1017.0
20260906051635 58 0.0 0.0 0.00 0.00 0.00 63 1017.2
20260906050635 59 0.0 0.0 0.00 0.00 0.00 62 1017.2
20260906045615 59 0.0 0.9 0.00 0.00 0.00 62 1017.2
20260906044615 60 135 1.7 1.7 0.00 0.00 0.00 62 1017.3
20260906043637 60 135 1.7 2.6 0.00 0.00 0.00 61 1017.4
20260906042637 61 0.0 0.0 0.00 0.00 0.00 60 1017.4
20260906041637 61 158 0.9 0.9 0.00 0.00 0.00 60 1017.6
20260906040617 61 158 0.9 1.7 0.00 0.00 0.00 59 1017.5
20260906035617 62 158 0.9 1.7 0.00 0.00 0.00 58 1017.4
20260906034617 62 158 0.9 0.9 0.00 0.00 0.00 55 1017.4
20260906033617 63 0.0 0.9 0.00 0.00 0.00 52 1017.3
20260906032617 63 0.0 0.0 0.00 0.00 0.00 51 1017.0
20260906031617 64 0.0 0.0 0.00 0.00 0.00 49 1017.0
20260906030617 64 0.0 0.9 0.00 0.00 0.00 48 1016.9
20260906025617 65 315 0.9 1.7 0.00 0.00 0.00 47 1017.0
20260906024617 65 315 2.6 3.5 0.00 0.00 0.00 47 1017.0
20260906023617 65 338 1.7 2.6 0.00 0.00 0.00 47 1017.1
20260906022617 66 293 1.7 2.6 0.00 0.00 0.00 49 1017.1
20260906021617 67 0.0 0.9 0.00 0.00 0.00 50 1017.2
20260906020617 68 338 0.9 0.9 0.00 0.00 0.00 47 1017.3
20260906015617 69 0.0 0.9 0.00 0.00 0.00 46 1017.4
20260906014617 70 0.0 0.9 0.00 0.00 0.00 44 1017.4
20260906013637 70 0.0 0.9 0.00 0.00 0.00 41 1017.4
20260906012617 71 0.0 0.0 0.00 0.00 0.00 40 1017.4
20260906011617 72 338 0.9 1.7 0.00 0.00 0.00 38 1017.4
20260906010637 72 0.0 0.9 0.00 0.00 0.00 40 1017.5
20260906005616 72 338 0.9 1.7 0.00 0.00 0.00 39 1017.5
20260906004637 71 338 1.7 2.6 0.00 0.00 0.00 41 1017.4
20260906003617 70 0.0 0.0 0.00 0.00 0.00 40 1017.5
20260906002617 71 0.0 0.9 0.00 0.00 0.00 39 1017.5
20260906001617 71 0.0 0.9 0.00 0.00 0.00 39 1017.5
20260906000617 72 338 1.7 2.6 0.00 0.00 0.00 37 1017.5
20260905235616 73 23 0.9 1.7 0.00 0.00 0.00 37 1017.5
20260905234616 71 338 1.7 3.5 0.00 0.00 0.00 39 1017.5
20260905233618 70 0 0.9 0.9 0.00 0.00 0.00 39 1017.4
20260905232617 71 45 0.9 1.7 0.00 0.00 0.00 38 1017.6
20260905231636 71 0 1.7 1.7 0.00 0.00 0.00 37 1017.8
20260905230617 72 338 3.5 5.2 0.00 0.00 0.00 37 1017.7
20260905225616 71 248 0.9 1.7 0.00 0.01 0.00 35 1017.8
20260905224617 70 338 1.7 3.5 0.00 0.01 0.00 38 1017.6
20260905223656 70 270 3.5 5.2 0.00 0.02 0.00 36 1017.7
20260905222616 71 270 2.6 3.5 0.00 0.02 0.00 36 1017.8
20260905221617 73 270 2.6 7.0 0.00 0.03 0.00 36 1017.9
20260905220616 72 293 5.2 7.0 0.00 0.03 0.00 38 1017.8
20260905215616 71 315 3.5 5.2 0.00 0.04 0.00 38 1018.1
20260905214616 72 293 3.5 6.1 0.00 0.05 0.00 39 1018.1
20260905213616 72 225 2.6 3.5 0.00 0.05 0.00 39 1018.1
20260905212616 73 338 3.5 5.2 0.00 0.05 0.00 39 1018.1
20260905211616 72 158 1.7 3.5 0.00 0.05 0.00 38 1018.1
20260905210616 72 293 5.2 7.0 0.00 0.05 0.00 39 1018.2
20260905205616 71 293 1.7 4.3 0.00 0.05 0.00 40 1018.4
20260905204616 73 248 5.2 8.7 0.00 0.05 0.00 38 1018.6
20260905203616 73 338 2.6 4.3 0.00 0.05 0.00 39 1018.6
20260905202656 73 293 0.9 1.7 0.00 0.05 0.00 43 1018.6
20260905201616 73 248 5.2 7.0 0.00 0.05 0.00 40 1018.6
20260905200616 72 315 5.2 7.8 0.00 0.05 0.00 47 1018.6
20260905195616 71 293 4.3 7.0 0.00 0.05 0.00 46 1018.5
20260905194616 70 0 2.6 4.3 0.00 0.05 0.00 50 1018.6
20260905193616 69 293 2.6 6.1 0.00 0.05 0.00 50 1018.7